W6UA-13 Weather Reports


time (UTC)temp
C
wind
direction
speed
KPH
gust
KPH
rain 1hr
cm
rain 24hr
cm
rain mn
cm
humidity
%
barometer
mb
20260506144938 12 329 1.6 4.8 0.00 0.00 0.00 85 1018.5
20260506143438 11 342 0.0 0.0 0.00 0.00 0.00 87 1018.4
20260506141939 10 342 0.0 0.0 0.00 0.00 0.00 89 1018.1
20260506140438 9 333 0.0 0.0 0.00 0.00 0.00 89 1018.0
20260506134938 8 359 0.0 0.0 0.00 0.00 0.00 89 1018.0
20260506133438 8 108 0.0 0.0 0.00 0.00 0.00 89 1018.0
20260506131938 8 272 0.0 0.0 0.00 0.00 0.00 89 1017.7
20260506130438 8 0 0.0 0.0 0.00 0.00 0.00 89 1017.5
20260506124938 7 329 3.2 3.2 0.00 0.00 0.00 88 1017.5
20260506123438 8 359 1.6 3.2 0.00 0.00 0.00 88 1017.4
20260506121938 8 356 1.6 3.2 0.00 0.00 0.00 88 1017.5
20260506120438 8 343 1.6 1.6 0.00 0.00 0.00 88 1017.5
20260506114938 8 313 1.6 3.2 0.00 0.00 0.00 88 1017.5
20260506113438 8 343 0.0 3.2 0.00 0.00 0.00 88 1017.7
20260506111938 8 330 1.6 3.2 0.00 0.00 0.00 87 1017.8
20260506110438 8 351 0.0 3.2 0.00 0.00 0.00 88 1017.6
20260506104938 8 344 1.6 1.6 0.00 0.00 0.00 87 1017.6
20260506103438 9 1 0.0 1.6 0.00 0.00 0.00 87 1017.6
20260506101938 9 32 0.0 3.2 0.00 0.00 0.00 87 1017.5
20260506100439 9 352 0.0 3.2 0.00 0.00 0.00 87 1017.5
20260506094939 9 3 1.6 3.2 0.00 0.00 0.00 87 1017.5
20260506093439 9 49 0.0 3.2 0.00 0.00 0.00 87 1017.6
20260506091939 9 316 0.0 3.2 0.00 0.00 0.00 87 1017.6
20260506090439 10 334 1.6 4.8 0.00 0.00 0.00 87 1017.9
20260506084939 10 354 0.0 0.0 0.00 0.00 0.00 86 1018.0
20260506083439 10 340 0.0 0.0 0.00 0.00 0.00 86 1018.0
20260506081939 10 338 0.0 0.0 0.00 0.00 0.00 86 1018.1
20260506080439 10 12 0.0 0.0 0.00 0.00 0.00 86 1018.1
20260506073439 11 345 0.0 3.2 0.00 0.00 0.00 85 1018.0
20260506071939 11 359 1.6 3.2 0.00 0.00 0.00 85 1018.0
20260506070439 11 1 1.6 3.2 0.00 0.00 0.00 84 1017.8
20260506061939 12 335 1.6 4.8 0.00 0.00 0.00 84 1017.6
20260506060439 12 304 0.0 0.0 0.00 0.00 0.00 84 1017.5
20260506050439 12 326 0.0 0.0 0.00 0.00 0.00 82 1017.2
20260506044939 12 310 1.6 0.0 0.00 0.00 0.00 82 1017.0
20260506043439 12 329 1.6 4.8 0.00 0.00 0.00 81 1017.0
20260506041939 12 304 1.6 4.8 0.00 0.00 0.00 80 1016.9
20260506040439 13 302 1.6 6.4 0.00 0.00 0.00 80 1016.8
20260506034939 13 313 3.2 9.7 0.00 0.00 0.00 79 1016.5
20260506033439 13 291 1.6 11.3 0.00 0.00 0.00 78 1016.4
20260506031939 13 300 3.2 4.8 0.00 0.00 0.00 77 1016.2
20260506030439 13 283 6.4 17.7 0.00 0.00 0.00 77 1015.9
20260506024939 13 307 6.4 14.5 0.00 0.00 0.00 75 1015.9
20260506023439 14 266 6.4 16.1 0.00 0.00 0.00 73 1015.9
20260506021939 15 333 6.4 9.7 0.00 0.00 0.00 71 1015.9
20260506020439 15 330 9.7 22.5 0.00 0.00 0.00 68 1015.9
20260506014939 16 5 8.0 17.7 0.00 0.00 0.00 64 1015.9
20260506013439 17 313 6.4 14.5 0.00 0.00 0.00 61 1016.0
20260506012449 17 309 6.4 11.3 0.00 0.00 0.00 62 1016.2
20260506012413 17 309 6.4 11.3 0.00 0.00 0.00 62 1016.2
20260506011939 17 309 6.4 11.3 0.00 0.00 0.00 62 1016.2
20260506010439 17 313 8.0 22.5 0.00 0.00 0.00 61 1016.3
20260506004939 17 347 8.0 19.3 0.00 0.00 0.00 60 1016.3
20260506003439 18 274 8.0 17.7 0.00 0.00 0.00 57 1015.9
20260506001939 18 290 8.0 14.5 0.00 0.00 0.00 59 1015.8
20260506000439 18 208 4.8 11.3 0.00 0.00 0.00 58 1015.7
20260505234939 18 304 4.8 11.3 0.00 0.00 0.00 58 1015.5
20260505233439 18 280 6.4 11.3 0.00 0.00 0.00 61 1015.6
20260505231939 17 258 9.7 19.3 0.00 0.00 0.00 66 1015.6
20260505230439 17 269 11.3 24.1 0.00 0.00 0.00 66 1015.7
20260505224939 18 219 8.0 20.9 0.00 0.00 0.00 62 1015.9
20260505223439 18 189 8.0 17.7 0.00 0.00 0.00 61 1015.9
20260505221939 18 205 8.0 16.1 0.00 0.00 0.00 60 1015.9
20260505220439 19 210 4.8 11.3 0.00 0.00 0.00 56 1015.9
20260505214939 18 341 4.8 19.3 0.00 0.00 0.00 57 1016.0
20260505213439 17 240 11.3 20.9 0.00 0.00 0.00 65 1016.2
20260505211939 16 240 11.3 22.5 0.00 0.00 0.00 64 1016.1
20260505210439 16 253 14.5 27.4 0.00 0.00 0.00 66 1016.3
20260505204940 16 255 12.9 22.5 0.00 0.00 0.00 64 1016.3
20260505203440 17 234 11.3 29.0 0.00 0.00 0.00 59 1016.2
20260505201940 16 214 12.9 25.7 0.00 0.00 0.00 63 1016.2
20260505200440 16 246 9.7 24.1 0.00 0.00 0.00 64 1016.3
20260505194940 16 217 9.7 29.0 0.00 0.00 0.00 63 1016.3
20260505193440 16 250 14.5 29.0 0.00 0.00 0.00 64 1016.3
20260505191940 17 285 9.7 17.7 0.00 0.00 0.00 61 1016.3
20260505190440 18 186 8.0 24.1 0.00 0.00 0.00 61 1016.3
20260505184940 17 143 8.0 19.3 0.00 0.00 0.00 64 1016.0
20260505183440 17 209 8.0 20.9 0.00 0.00 0.00 64 1016.2
20260505181940 17 179 6.4 14.5 0.00 0.00 0.00 65 1016.0
20260505180440 17 180 6.4 17.7 0.00 0.00 0.00 66 1015.9
20260505174940 16 170 6.4 16.1 0.00 0.00 0.00 66 1015.9
20260505173440 17 214 6.4 16.1 0.00 0.00 0.00 66 1015.7
20260505171940 17 179 4.8 14.5 0.00 0.00 0.00 66 1015.4
20260505170440 16 216 3.2 16.1 0.00 0.00 0.00 65 1015.5
20260505164940 16 148 4.8 6.4 0.00 0.00 0.00 65 1015.6
20260505163440 16 200 1.6 8.0 0.00 0.00 0.00 65 1015.4
20260505161940 16 242 1.6 9.7 0.00 0.00 0.00 67 1015.4
20260505160440 15 323 1.6 3.2 0.00 0.00 0.00 70 1015.3
20260505151940 14 344 1.6 8.0 0.00 0.00 0.00 77 1014.9
20260505150440 13 332 0.0 3.2 0.00 0.00 0.00 82 1014.9